Regional Weather Roundup
Issued by NWS Huntsville, AL

Home | Current Version | Previous Version | Text Only | Print | Product List | Glossary On
Versions: 1 2 3 4 5 6 7 8 9 10 11 12 13 14 15 16 17 18 19 20 21 22 23 24 25 26
000
ASUS44 KHUN 271410
RWRHUN

WEATHER ROUNDUP FOR THE TENNESSEE VALLEY
NATIONAL WEATHER SERVICE HUNTSVILLE AL
900 AM CDT FRI MAY 27 2016

ALZ001>004-271500-
NORTHWEST ALABAMA

CITY           SKY/WX    TMP DP  RH WIND       PRES   REMARKS
SHOALS AIRPORT MOSUNNY   77  65  66 VRB5      30.05R
$$

ALZ005>007-016-271500-
NORTH CENTRAL ALABAMA

CITY           SKY/WX    TMP DP  RH WIND       PRES   REMARKS
DECATUR AP     MOSUNNY   76  67  73 SE8       30.07R
HUNTSVILLE AP  PTSUNNY   76  64  66 S7        30.07S
HUN NWS/UAH      N/A     79  64  60 S7          N/A
MERIDIANVILLE  CLOUDY    79  59  50 S9        30.08S
REDSTONE ARSN  CLOUDY    76  66  72 SW7       30.07S
VINEMONT AP    FAIR      76  66  70 S7        30.10S
$$

ALZ008>010-271500-
NORTHEAST ALABAMA

CITY           SKY/WX    TMP DP  RH WIND       PRES   REMARKS
ALBERTVILLE    PTSUNNY   75  70  83 S5        30.10R
FORT PAYNE     SUNNY     77  61  57 CALM      30.10S
SCOTTSBORO AP  SUNNY     75  66  73 SE3       30.10S
SCOTTSBORO HCN   N/A     73 N/A N/A MISG        N/A
VALLEY HEAD      N/A     73 N/A N/A MISG        N/A
$$

TNZ076-096-097-271500-
SOUTHEASTERN MIDDLE TENNESSEE

CITY           SKY/WX    TMP DP  RH WIND       PRES   REMARKS
TULLAHOMA      SUNNY     75  68  78 SW14      30.10R
WINCHESTER     SUNNY     79  64  61 S9        30.09S
$$

...SURROUNDING SITES...

CITY           SKY/WX    TMP DP  RH WIND       PRES   REMARKS
ATLANTA        PTSUNNY   74  59  59 S9        30.13F
ANNISTON       SUNNY     77  66  68 E3        30.10R
BIRMINGHAM     PTSUNNY   79  63  57 S9        30.10R
CHATTANOOGA    PTSUNNY   77  64  64 S6        30.11R
DALTON         PTSUNNY   77  64  65 SE6       30.12S
GADSDEN        MOSUNNY   76  67  73 CALM      30.10R
GOLDEN TRNGL   SUNNY     75  66  73 S9        30.00S
HALEYVILLE     FAIR      75  66  73 S10       30.08R
JACKSON TN     CLOUDY    72  66  81 S8        29.99R
MEMPHIS        CLOUDY    75  69  81 SE8       29.95S
NASHVILLE      CLOUDY    76  64  66 S5        30.06R
OXFORD MS      FAIR      73  66  78 S8G18     30.01R
ROME           SUNNY     76  65  68 CALM      30.10S
SAVANNAH       SUNNY     75  66  73 S9G15     30.01R
TUPELO         CLOUDY    75  66  73 SE12      30.00R
TUSCALOOSA     CLOUDY    77  70  79 S7        30.05S
$$

...GULF COAST WEATHER...

CITY           SKY/WX    TMP DP  RH WIND       PRES   REMARKS
GULFPORT       MOSUNNY   83  64  52 SE15      29.98F
PASCAGOULA     MOSUNNY   81  69  67 SE16      30.01S
MOBILE         CLOUDY    80  71  74 SE14      30.03F
GULF SHORES    CLOUDY    79  71  77 E8        30.03S
PENSACOLA      PTSUNNY   82  65  56 SE16      30.03S
DESTIN         MOSUNNY   79  72  79 E5        30.06S
PANAMA CITY    SUNNY     78  69  73 E8        30.07R
APPALACHICOLA  MOSUNNY   80  69  69 SE9       30.07R
$$





USA.gov is the U.S. government's official web portal to all federal, state and local government web resources and services.